Time,TemperatureF,DewpointF,PressureIn,WindDirection,WindDirectionDegrees,WindSpeedMPH,WindSpeedGustMPH,Humidity,HourlyPrecipIn,Conditions,Clouds,dailyrainin,SoftwareType,DateUTC
2013-08-25 00:02:00,59.7,47.9,29.81,South,169,0.0,0.0,65,0.00,,---,0.00,VWS V14.01,2013-08-25 07:02:00,
2013-08-25 00:07:00,59.6,48.2,29.81,South,169,0.0,0.0,66,0.00,,---,0.00,VWS V14.01,2013-08-25 07:07:00,
2013-08-25 00:12:00,59.5,48.2,29.81,South,169,0.0,0.0,66,0.00,,---,0.00,VWS V14.01,2013-08-25 07:12:00,
2013-08-25 00:17:00,59.4,48.0,29.81,South,169,0.0,0.0,66,0.00,,---,0.00,VWS V14.01,2013-08-25 07:17:00,
2013-08-25 00:22:00,59.3,48.0,29.81,South,169,0.0,0.0,66,0.00,,---,0.00,VWS V14.01,2013-08-25 07:22:00,
2013-08-25 00:27:00,59.1,47.8,29.82,South,169,0.0,0.0,66,0.00,,---,0.00,VWS V14.01,2013-08-25 07:27:00,
2013-08-25 00:32:00,59.0,48.1,29.82,South,169,0.0,0.0,67,0.00,,---,0.00,VWS V14.01,2013-08-25 07:32:00,
2013-08-25 00:37:00,59.0,48.1,29.82,South,169,0.0,0.0,67,0.00,,---,0.00,VWS V14.01,2013-08-25 07:37:00,
2013-08-25 00:42:00,59.0,48.5,29.82,South,169,0.0,0.0,68,0.00,,---,0.00,VWS V14.01,2013-08-25 07:42:00,
2013-08-25 00:47:00,58.9,48.4,29.82,South,169,0.0,0.0,68,0.00,,---,0.00,VWS V14.01,2013-08-25 07:47:00,
2013-08-25 00:52:00,58.7,48.2,29.82,South,169,0.0,0.0,68,0.00,,---,0.00,VWS V14.01,2013-08-25 07:52:00,
2013-08-25 00:57:00,58.6,48.1,29.82,South,169,0.0,0.0,68,0.00,,---,0.00,VWS V14.01,2013-08-25 07:57:00,
2013-08-25 01:02:00,58.5,48.0,29.82,South,169,0.0,0.0,68,0.00,,---,0.00,VWS V14.01,2013-08-25 08:02:00,
2013-08-25 01:07:00,58.4,48.3,29.82,South,169,0.0,0.0,69,0.00,,---,0.00,VWS V14.01,2013-08-25 08:07:00,
2013-08-25 01:12:00,58.3,48.2,29.82,South,169,0.0,0.0,69,0.00,,---,0.00,VWS V14.01,2013-08-25 08:12:00,
2013-08-25 01:17:00,58.2,47.7,29.82,South,169,0.0,0.0,68,0.00,,---,0.00,VWS V14.01,2013-08-25 08:17:00,
2013-08-25 01:22:00,58.1,48.0,29.82,South,169,0.0,0.0,69,0.00,,---,0.00,VWS V14.01,2013-08-25 08:22:00,
2013-08-25 01:27:00,58.0,47.9,29.82,South,169,0.0,0.0,69,0.00,,---,0.00,VWS V14.01,2013-08-25 08:27:00,
2013-08-25 01:32:00,58.0,47.9,29.82,South,169,0.0,0.0,69,0.00,,---,0.00,VWS V14.01,2013-08-25 08:32:00,
2013-08-25 01:37:00,57.9,47.8,29.82,South,169,0.0,0.0,69,0.00,,---,0.00,VWS V14.01,2013-08-25 08:37:00,
2013-08-25 01:42:00,57.8,47.7,29.82,South,169,0.0,0.0,69,0.00,,---,0.00,VWS V14.01,2013-08-25 08:42:00,
2013-08-25 01:47:00,57.7,48.0,29.82,South,169,0.0,0.0,70,0.00,,---,0.00,VWS V14.01,2013-08-25 08:47:00,
2013-08-25 01:52:00,57.5,47.8,29.82,South,169,0.0,0.0,70,0.00,,---,0.00,VWS V14.01,2013-08-25 08:52:00,
2013-08-25 01:57:00,57.4,47.7,29.83,South,169,0.0,0.0,70,0.00,,---,0.00,VWS V14.01,2013-08-25 08:57:00,
2013-08-25 02:02:00,57.3,47.6,29.82,South,169,0.0,0.0,70,0.00,,---,0.00,VWS V14.01,2013-08-25 09:02:00,
2013-08-25 02:07:00,57.2,47.5,29.83,South,169,0.0,0.0,70,0.00,,---,0.00,VWS V14.01,2013-08-25 09:07:00,
2013-08-25 02:12:00,57.0,47.3,29.82,South,169,0.0,0.0,70,0.00,,---,0.00,VWS V14.01,2013-08-25 09:12:00,
2013-08-25 02:17:00,56.9,47.2,29.83,South,169,0.0,0.0,70,0.00,,---,0.00,VWS V14.01,2013-08-25 09:17:00,
2013-08-25 02:22:00,56.7,47.4,29.82,South,169,0.0,0.0,71,0.00,,---,0.00,VWS V14.01,2013-08-25 09:22:00,
2013-08-25 02:27:00,56.6,47.3,29.82,South,169,0.0,1.0,71,0.00,,---,0.00,VWS V14.01,2013-08-25 09:27:00,
2013-08-25 02:32:00,56.4,47.1,29.82,South,169,0.0,0.0,71,0.00,,---,0.00,VWS V14.01,2013-08-25 09:32:00,
2013-08-25 02:37:00,56.2,46.9,29.83,South,169,0.0,0.0,71,0.00,,---,0.00,VWS V14.01,2013-08-25 09:37:00,
2013-08-25 02:42:00,56.0,47.1,29.82,South,169,0.0,0.0,72,0.00,,---,0.00,VWS V14.01,2013-08-25 09:42:00,
2013-08-25 02:47:00,55.9,47.0,29.83,South,169,0.0,0.0,72,0.00,,---,0.00,VWS V14.01,2013-08-25 09:47:00,
2013-08-25 02:52:00,55.9,47.0,29.83,South,169,0.0,0.0,72,0.00,,---,0.00,VWS V14.01,2013-08-25 09:52:00,
2013-08-25 02:57:00,55.7,46.8,29.82,South,169,0.0,0.0,72,0.00,,---,0.00,VWS V14.01,2013-08-25 09:57:00,
2013-08-25 03:02:00,55.7,46.8,29.82,South,169,0.0,0.0,72,0.00,,---,0.00,VWS V14.01,2013-08-25 10:02:00,
2013-08-25 03:07:00,55.5,46.6,29.82,South,169,0.0,0.0,72,0.00,,---,0.00,VWS V14.01,2013-08-25 10:07:00,
2013-08-25 03:12:00,55.5,46.6,29.82,South,169,0.0,0.0,72,0.00,,---,0.00,VWS V14.01,2013-08-25 10:12:00,
2013-08-25 03:17:00,55.4,46.5,29.82,South,169,0.0,0.0,72,0.00,,---,0.00,VWS V14.01,2013-08-25 10:17:00,
2013-08-25 03:22:00,55.4,46.5,29.83,South,169,0.0,0.0,72,0.00,,---,0.00,VWS V14.01,2013-08-25 10:22:00,
2013-08-25 03:27:00,55.4,46.5,29.83,South,169,0.0,0.0,72,0.00,,---,0.00,VWS V14.01,2013-08-25 10:27:00,
2013-08-25 03:32:00,55.4,46.5,29.83,South,169,0.0,0.0,72,0.00,,---,0.00,VWS V14.01,2013-08-25 10:32:00,
2013-08-25 03:37:00,55.5,46.6,29.83,South,169,0.0,0.0,72,0.00,,---,0.00,VWS V14.01,2013-08-25 10:37:00,
2013-08-25 03:42:00,55.5,47.0,29.83,South,169,0.0,0.0,73,0.00,,---,0.00,VWS V14.01,2013-08-25 10:42:00,
2013-08-25 03:47:00,55.6,47.1,29.83,South,169,0.0,0.0,73,0.00,,---,0.00,VWS V14.01,2013-08-25 10:47:00,
2013-08-25 03:52:00,55.6,47.1,29.83,South,169,0.0,0.0,73,0.00,,---,0.00,VWS V14.01,2013-08-25 10:52:00,
2013-08-25 03:57:00,55.6,47.1,29.83,South,169,0.0,0.0,73,0.00,,---,0.00,VWS V14.01,2013-08-25 10:57:00,
2013-08-25 04:02:00,55.6,47.1,29.83,South,169,0.0,0.0,73,0.00,,---,0.00,VWS V14.01,2013-08-25 11:02:00,
2013-08-25 04:07:00,55.6,47.1,29.83,South,169,0.0,0.0,73,0.00,,---,0.00,VWS V14.01,2013-08-25 11:07:00,
2013-08-25 04:12:00,55.6,47.1,29.83,South,169,0.0,0.0,73,0.00,,---,0.00,VWS V14.01,2013-08-25 11:12:00,
2013-08-25 04:17:00,55.6,46.7,29.83,South,169,0.0,0.0,72,0.00,,---,0.00,VWS V14.01,2013-08-25 11:17:00,
2013-08-25 04:22:00,55.6,46.7,29.83,South,169,0.0,0.0,72,0.00,,---,0.00,VWS V14.01,2013-08-25 11:22:00,
2013-08-25 04:27:00,55.5,46.6,29.82,South,169,0.0,0.0,72,0.00,,---,0.00,VWS V14.01,2013-08-25 11:27:00,
2013-08-25 04:32:00,55.4,46.5,29.82,South,169,0.0,0.0,72,0.00,,---,0.00,VWS V14.01,2013-08-25 11:32:00,
2013-08-25 04:37:00,55.3,46.4,29.83,South,169,0.0,0.0,72,0.00,,---,0.00,VWS V14.01,2013-08-25 11:37:00,
2013-08-25 04:42:00,55.2,46.7,29.83,South,169,0.0,0.0,73,0.00,,---,0.00,VWS V14.01,2013-08-25 11:42:00,
2013-08-25 04:47:00,55.1,46.6,29.83,South,169,0.0,0.0,73,0.00,,---,0.00,VWS V14.01,2013-08-25 11:47:00,
2013-08-25 04:52:00,55.1,46.6,29.83,South,169,0.0,0.0,73,0.00,,---,0.00,VWS V14.01,2013-08-25 11:52:00,
2013-08-25 04:57:00,55.1,46.6,29.83,South,169,0.0,0.0,73,0.00,,---,0.00,VWS V14.01,2013-08-25 11:57:00,
2013-08-25 05:02:00,55.1,46.6,29.83,South,169,0.0,0.0,73,0.00,,---,0.00,VWS V14.01,2013-08-25 12:02:00,
2013-08-25 05:07:00,55.0,46.5,29.83,South,169,0.0,0.0,73,0.00,,---,0.00,VWS V14.01,2013-08-25 12:07:00,
2013-08-25 05:12:00,54.9,46.4,29.83,South,169,0.0,0.0,73,0.00,,---,0.00,VWS V14.01,2013-08-25 12:12:00,
2013-08-25 05:17:00,54.9,46.4,29.83,South,169,0.0,0.0,73,0.00,,---,0.00,VWS V14.01,2013-08-25 12:17:00,
2013-08-25 05:22:00,54.9,46.8,29.83,South,169,0.0,0.0,74,0.00,,---,0.00,VWS V14.01,2013-08-25 12:22:00,
2013-08-25 05:27:00,54.9,46.4,29.83,South,169,0.0,0.0,73,0.00,,---,0.00,VWS V14.01,2013-08-25 12:27:00,
2013-08-25 05:32:00,54.9,46.8,29.83,South,169,0.0,0.0,74,0.00,,---,0.00,VWS V14.01,2013-08-25 12:32:00,
2013-08-25 05:37:00,54.8,46.3,29.83,South,169,0.0,0.0,73,0.00,,---,0.00,VWS V14.01,2013-08-25 12:37:00,
2013-08-25 05:42:00,54.8,46.7,29.83,South,169,0.0,0.0,74,0.00,,---,0.00,VWS V14.01,2013-08-25 12:42:00,
2013-08-25 05:47:00,54.8,46.7,29.83,South,169,0.0,0.0,74,0.00,,---,0.00,VWS V14.01,2013-08-25 12:47:00,
2013-08-25 05:52:00,54.9,46.8,29.83,South,169,0.0,0.0,74,0.00,,---,0.00,VWS V14.01,2013-08-25 12:52:00,
2013-08-25 05:57:00,54.9,46.8,29.83,South,169,0.0,0.0,74,0.00,,---,0.00,VWS V14.01,2013-08-25 12:57:00,
2013-08-25 06:02:00,54.9,46.8,29.83,South,169,0.0,0.0,74,0.00,,---,0.00,VWS V14.01,2013-08-25 13:02:00,
2013-08-25 06:07:00,54.9,46.8,29.83,South,169,0.0,0.0,74,0.00,,---,0.00,VWS V14.01,2013-08-25 13:07:00,
2013-08-25 06:12:00,54.9,46.8,29.84,South,169,0.0,0.0,74,0.00,,---,0.00,VWS V14.01,2013-08-25 13:12:00,
2013-08-25 06:17:00,54.9,46.8,29.84,South,169,0.0,0.0,74,0.00,,---,0.00,VWS V14.01,2013-08-25 13:17:00,
2013-08-25 06:22:00,54.9,46.8,29.84,South,169,0.0,0.0,74,0.00,,---,0.00,VWS V14.01,2013-08-25 13:22:00,
2013-08-25 06:27:00,55.0,46.9,29.84,South,169,0.0,0.0,74,0.00,,---,0.00,VWS V14.01,2013-08-25 13:27:00,
2013-08-25 06:32:00,55.1,47.0,29.85,South,169,0.0,0.0,74,0.00,,---,0.00,VWS V14.01,2013-08-25 13:32:00,
2013-08-25 06:37:00,55.2,47.1,29.85,South,169,0.0,0.0,74,0.00,,---,0.00,VWS V14.01,2013-08-25 13:37:00,
2013-08-25 06:42:00,55.3,47.2,29.85,South,169,0.0,0.0,74,0.00,,---,0.00,VWS V14.01,2013-08-25 13:42:00,
2013-08-25 06:47:00,55.4,47.3,29.85,South,169,0.0,0.0,74,0.00,,---,0.00,VWS V14.01,2013-08-25 13:47:00,
2013-08-25 06:52:00,55.5,47.4,29.85,South,169,0.0,0.0,74,0.00,,---,0.00,VWS V14.01,2013-08-25 13:52:00,
2013-08-25 06:57:00,55.6,47.5,29.85,South,169,0.0,0.0,74,0.00,,---,0.00,VWS V14.01,2013-08-25 13:57:00,
2013-08-25 07:02:00,55.7,47.5,29.85,South,169,0.0,0.0,74,0.00,,---,0.00,VWS V14.01,2013-08-25 14:02:00,
2013-08-25 07:07:00,55.7,47.5,29.86,South,169,0.0,0.0,74,0.00,,---,0.00,VWS V14.01,2013-08-25 14:07:00,
2013-08-25 07:12:00,55.8,47.7,29.86,South,169,0.0,0.0,74,0.00,,---,0.00,VWS V14.01,2013-08-25 14:12:00,
2013-08-25 07:17:00,56.0,48.2,29.86,South,169,0.0,0.0,75,0.00,,---,0.00,VWS V14.01,2013-08-25 14:17:00,
2013-08-25 07:22:00,56.2,48.4,29.86,South,169,0.0,0.0,75,0.00,,---,0.00,VWS V14.01,2013-08-25 14:22:00,
2013-08-25 07:27:00,56.6,48.8,29.85,South,169,0.0,0.0,75,0.00,,---,0.00,VWS V14.01,2013-08-25 14:27:00,
2013-08-25 07:32:00,57.0,49.2,29.85,South,169,0.0,0.0,75,0.00,,---,0.00,VWS V14.01,2013-08-25 14:32:00,
2013-08-25 07:37:00,57.5,49.3,29.85,South,169,0.0,0.0,74,0.00,,---,0.00,VWS V14.01,2013-08-25 14:37:00,
2013-08-25 07:42:00,58.0,49.8,29.86,South,169,0.0,0.0,74,0.00,,---,0.00,VWS V14.01,2013-08-25 14:42:00,
2013-08-25 07:47:00,58.5,49.9,29.86,South,169,0.0,0.0,73,0.00,,---,0.00,VWS V14.01,2013-08-25 14:47:00,
2013-08-25 07:52:00,59.0,50.4,29.86,South,169,0.0,0.0,73,0.00,,---,0.00,VWS V14.01,2013-08-25 14:52:00,
2013-08-25 07:57:00,59.8,50.8,29.86,SW,233,0.0,0.0,72,0.00,,---,0.00,VWS V14.01,2013-08-25 14:57:00,
2013-08-25 08:02:00,60.4,51.3,29.86,SW,233,0.0,0.0,72,0.00,,---,0.00,VWS V14.01,2013-08-25 15:02:00,
2013-08-25 08:07:00,61.1,51.6,29.86,SW,233,0.0,0.0,71,0.00,,---,0.00,VWS V14.01,2013-08-25 15:07:00,
2013-08-25 08:12:00,61.7,52.2,29.86,SW,233,0.0,0.0,71,0.00,,---,0.00,VWS V14.01,2013-08-25 15:12:00,
2013-08-25 08:17:00,62.5,52.2,29.86,SW,217,0.0,0.0,69,0.00,,---,0.00,VWS V14.01,2013-08-25 15:17:00,
2013-08-25 08:22:00,63.2,52.1,29.85,SW,216,0.0,0.0,67,0.00,,---,0.00,VWS V14.01,2013-08-25 15:22:00,
2013-08-25 08:27:00,64.2,49.6,29.85,North,355,0.0,4.0,59,0.00,,---,0.00,VWS V14.01,2013-08-25 15:27:00,
2013-08-25 08:32:00,65.0,51.7,29.85,NNW,346,0.0,0.0,62,0.00,,---,0.00,VWS V14.01,2013-08-25 15:32:00,
2013-08-25 08:37:00,65.6,51.8,29.85,NNW,342,0.0,0.0,61,0.00,,---,0.00,VWS V14.01,2013-08-25 15:37:00,
2013-08-25 08:42:00,66.0,52.2,29.85,NNW,342,0.0,0.0,61,0.00,,---,0.00,VWS V14.01,2013-08-25 15:42:00,
2013-08-25 08:47:00,66.6,50.9,29.86,SW,215,0.0,0.0,57,0.00,,---,0.00,VWS V14.01,2013-08-25 15:47:00,
2013-08-25 08:52:00,67.2,50.5,29.87,SW,223,6.0,6.0,55,0.00,,---,0.00,VWS V14.01,2013-08-25 15:52:00,
2013-08-25 08:57:00,67.5,51.3,29.87,SE,143,0.0,0.0,56,0.00,,---,0.00,VWS V14.01,2013-08-25 15:57:00,
2013-08-25 09:02:00,67.4,51.2,29.86,SE,143,0.0,0.0,56,0.00,,---,0.00,VWS V14.01,2013-08-25 16:02:00,
2013-08-25 09:07:00,67.1,52.3,29.87,South,172,0.0,0.0,59,0.00,,---,0.00,VWS V14.01,2013-08-25 16:07:00,
2013-08-25 09:12:00,66.4,55.1,29.86,SE,139,0.0,0.0,67,0.01,,---,0.01,VWS V14.01,2013-08-25 16:12:00,
2013-08-25 09:17:00,65.2,54.8,29.87,SE,139,0.0,0.0,69,0.01,,---,0.01,VWS V14.01,2013-08-25 16:17:00,
2013-08-25 09:22:00,63.9,55.8,29.87,SE,139,0.0,0.0,75,0.01,,---,0.01,VWS V14.01,2013-08-25 16:22:00,
2013-08-25 09:27:00,63.1,55.8,29.87,SE,139,0.0,0.0,77,0.01,,---,0.01,VWS V14.01,2013-08-25 16:27:00,
2013-08-25 09:32:00,62.5,55.9,29.87,SE,139,0.0,0.0,79,0.01,,---,0.01,VWS V14.01,2013-08-25 16:32:00,
2013-08-25 09:37:00,62.0,55.8,29.87,SE,139,0.0,0.0,80,0.01,,---,0.01,VWS V14.01,2013-08-25 16:37:00,
2013-08-25 09:42:00,61.8,56.2,29.87,SE,139,0.0,0.0,82,0.01,,---,0.01,VWS V14.01,2013-08-25 16:42:00,
2013-08-25 09:47:00,61.7,56.8,29.87,SE,139,0.0,0.0,84,0.01,,---,0.01,VWS V14.01,2013-08-25 16:47:00,
2013-08-25 09:52:00,61.7,57.2,29.87,SE,139,0.0,0.0,85,0.01,,---,0.01,VWS V14.01,2013-08-25 16:52:00,
2013-08-25 09:57:00,61.7,57.2,29.87,SE,139,0.0,0.0,85,0.01,,---,0.01,VWS V14.01,2013-08-25 16:57:00,
2013-08-25 10:02:00,61.7,57.2,29.88,SE,139,0.0,0.0,85,0.01,,---,0.01,VWS V14.01,2013-08-25 17:02:00,
2013-08-25 10:07:00,61.9,57.7,29.88,SE,139,0.0,0.0,86,0.01,,---,0.01,VWS V14.01,2013-08-25 17:07:00,
2013-08-25 10:12:00,61.9,57.7,29.88,SE,139,0.0,0.0,86,0.00,,---,0.01,VWS V14.01,2013-08-25 17:12:00,
2013-08-25 10:17:00,61.8,57.6,29.87,SE,139,0.0,0.0,86,0.00,,---,0.01,VWS V14.01,2013-08-25 17:17:00,
2013-08-25 10:22:00,61.8,57.6,29.88,SE,139,0.0,0.0,86,0.00,,---,0.01,VWS V14.01,2013-08-25 17:22:00,
2013-08-25 10:26:00,61.9,57.7,29.88,SE,139,0.0,0.0,86,0.00,,---,0.01,VWS V14.01,2013-08-25 17:26:00,
2013-08-25 10:31:00,61.9,57.7,29.88,SE,139,0.0,0.0,86,0.00,,---,0.01,VWS V14.01,2013-08-25 17:31:00,
2013-08-25 10:36:00,62.0,58.1,29.88,SE,139,0.0,0.0,87,0.00,,---,0.01,VWS V14.01,2013-08-25 17:36:00,
2013-08-25 10:41:00,62.2,58.3,29.88,SE,139,0.0,0.0,87,0.01,,---,0.02,VWS V14.01,2013-08-25 17:41:00,
2013-08-25 10:46:00,62.3,58.4,29.88,SE,139,0.0,0.0,87,0.01,,---,0.02,VWS V14.01,2013-08-25 17:46:00,
2013-08-25 10:51:00,62.7,59.1,29.89,SE,139,0.0,0.0,88,0.01,,---,0.02,VWS V14.01,2013-08-25 17:51:00,
2013-08-25 10:56:00,63.2,59.6,29.89,SE,139,0.0,0.0,88,0.01,,---,0.02,VWS V14.01,2013-08-25 17:56:00,
2013-08-25 11:01:00,63.7,60.4,29.89,SE,139,0.0,0.0,89,0.01,,---,0.02,VWS V14.01,2013-08-25 18:01:00,
2013-08-25 11:06:00,64.2,60.6,29.89,SE,139,0.0,0.0,88,0.01,,---,0.02,VWS V14.01,2013-08-25 18:06:00,
2013-08-25 11:11:00,64.5,60.2,29.89,SE,139,0.0,0.0,86,0.01,,---,0.02,VWS V14.01,2013-08-25 18:11:00,
2013-08-25 11:16:00,64.6,59.7,29.89,SE,139,0.0,0.0,84,0.01,,---,0.02,VWS V14.01,2013-08-25 18:16:00,
2013-08-25 11:21:00,64.9,58.9,29.89,SE,144,0.0,0.0,81,0.01,,---,0.02,VWS V14.01,2013-08-25 18:21:00,
2013-08-25 11:26:00,65.2,59.6,29.89,SE,144,0.0,0.0,82,0.01,,---,0.02,VWS V14.01,2013-08-25 18:26:00,
2013-08-25 11:31:00,65.6,60.3,29.89,SE,144,0.0,0.0,83,0.01,,---,0.02,VWS V14.01,2013-08-25 18:31:00,
2013-08-25 11:36:00,65.9,59.9,29.89,SE,144,0.0,0.0,81,0.01,,---,0.02,VWS V14.01,2013-08-25 18:36:00,
2013-08-25 11:41:00,66.4,60.0,29.89,SE,144,0.0,0.0,80,0.00,,---,0.02,VWS V14.01,2013-08-25 18:41:00,
2013-08-25 11:46:00,66.9,57.6,29.89,SE,144,0.0,0.0,72,0.00,,---,0.02,VWS V14.01,2013-08-25 18:46:00,
2013-08-25 11:51:00,67.2,57.9,29.89,SE,144,0.0,0.0,72,0.00,,---,0.02,VWS V14.01,2013-08-25 18:51:00,
2013-08-25 11:56:00,67.8,58.5,29.89,SSE,163,1.0,1.0,72,0.00,,---,0.02,VWS V14.01,2013-08-25 18:56:00,
2013-08-25 12:01:00,68.4,54.9,29.89,SSW,204,0.0,0.0,62,0.00,,---,0.02,VWS V14.01,2013-08-25 19:01:00,
2013-08-25 12:06:00,69.4,55.4,29.89,ESE,109,0.0,0.0,61,0.00,,---,0.02,VWS V14.01,2013-08-25 19:06:00,
2013-08-25 12:11:00,70.4,54.5,29.89,ESE,103,0.0,0.0,57,0.00,,---,0.02,VWS V14.01,2013-08-25 19:11:00,
2013-08-25 12:16:00,71.2,52.2,29.89,South,175,1.0,1.0,51,0.00,,---,0.02,VWS V14.01,2013-08-25 19:16:00,
2013-08-25 12:21:00,72.1,51.3,29.89,South,176,0.0,4.0,48,0.00,,---,0.02,VWS V14.01,2013-08-25 19:21:00,
2013-08-25 12:26:00,72.7,53.0,29.88,South,173,0.0,0.0,50,0.00,,---,0.02,VWS V14.01,2013-08-25 19:26:00,
2013-08-25 12:31:00,73.1,53.4,29.89,SE,130,0.0,1.0,50,0.00,,---,0.02,VWS V14.01,2013-08-25 19:31:00,
2013-08-25 12:36:00,73.5,52.6,29.89,SSE,152,0.0,0.0,48,0.00,,---,0.02,VWS V14.01,2013-08-25 19:36:00,
2013-08-25 12:41:00,73.8,52.3,29.89,SSE,153,1.0,3.0,47,0.00,,---,0.02,VWS V14.01,2013-08-25 19:41:00,
2013-08-25 12:46:00,74.3,52.8,29.88,WNW,292,0.0,2.0,47,0.00,,---,0.02,VWS V14.01,2013-08-25 19:46:00,
2013-08-25 12:51:00,75.2,51.8,29.88,SW,222,3.0,4.0,44,0.00,,---,0.02,VWS V14.01,2013-08-25 19:51:00,
2013-08-25 12:56:00,75.6,49.6,29.88,SE,141,5.0,5.0,40,0.00,,---,0.02,VWS V14.01,2013-08-25 19:56:00,
2013-08-25 13:01:00,75.8,53.0,29.88,SE,127,0.0,0.0,45,0.00,,---,0.02,VWS V14.01,2013-08-25 20:01:00,
2013-08-25 13:06:00,76.1,52.0,29.88,ESE,115,0.0,0.0,43,0.00,,---,0.02,VWS V14.01,2013-08-25 20:06:00,
2013-08-25 13:11:00,76.4,53.5,29.88,NNE,32,0.0,0.0,45,0.00,,---,0.02,VWS V14.01,2013-08-25 20:11:00,
2013-08-25 13:16:00,76.6,53.7,29.88,SSW,193,1.0,2.0,45,0.00,,---,0.02,VWS V14.01,2013-08-25 20:16:00,
2013-08-25 13:21:00,76.8,52.6,29.88,NW,315,0.0,0.0,43,0.00,,---,0.02,VWS V14.01,2013-08-25 20:21:00,
2013-08-25 13:26:00,76.7,51.9,29.88,SE,125,1.0,2.0,42,0.00,,---,0.02,VWS V14.01,2013-08-25 20:26:00,
2013-08-25 13:31:00,76.4,52.3,29.88,NW,304,0.0,6.0,43,0.00,,---,0.02,VWS V14.01,2013-08-25 20:31:00,
2013-08-25 13:36:00,76.3,51.5,29.88,SSE,157,2.0,3.0,42,0.00,,---,0.02,VWS V14.01,2013-08-25 20:36:00,
2013-08-25 13:41:00,76.3,50.9,29.88,SSW,200,0.0,0.0,41,0.00,,---,0.02,VWS V14.01,2013-08-25 20:41:00,
2013-08-25 13:46:00,76.0,50.0,29.88,South,190,0.0,5.0,40,0.00,,---,0.02,VWS V14.01,2013-08-25 20:46:00,
2013-08-25 13:51:00,75.9,51.2,29.88,WNW,290,0.0,0.0,42,0.00,,---,0.02,VWS V14.01,2013-08-25 20:51:00,
2013-08-25 13:56:00,76.0,50.0,29.88,WNW,289,2.0,2.0,40,0.00,,---,0.02,VWS V14.01,2013-08-25 20:56:00,
2013-08-25 14:01:00,76.3,50.9,29.88,WNW,286,0.0,1.0,41,0.00,,---,0.02,VWS V14.01,2013-08-25 21:01:00,
2013-08-25 14:06:00,76.6,51.2,29.88,SW,234,1.0,1.0,41,0.00,,---,0.02,VWS V14.01,2013-08-25 21:06:00,
2013-08-25 14:11:00,77.1,50.9,29.88,WSW,255,0.0,0.0,40,0.00,,---,0.02,VWS V14.01,2013-08-25 21:11:00,
2013-08-25 14:16:00,77.8,52.2,29.88,WSW,252,1.0,1.0,41,0.00,,---,0.02,VWS V14.01,2013-08-25 21:16:00,
2013-08-25 14:21:00,78.0,51.1,29.88,South,176,0.0,0.0,39,0.00,,---,0.02,VWS V14.01,2013-08-25 21:21:00,
2013-08-25 14:26:00,77.7,50.8,29.88,North,5,1.0,6.0,39,0.00,,---,0.02,VWS V14.01,2013-08-25 21:26:00,
2013-08-25 14:31:00,77.5,51.3,29.88,NNW,328,0.0,2.0,40,0.00,,---,0.02,VWS V14.01,2013-08-25 21:31:00,
2013-08-25 14:36:00,77.4,52.5,29.88,North,360,2.0,2.0,42,0.00,,---,0.02,VWS V14.01,2013-08-25 21:36:00,
2013-08-25 14:41:00,77.4,51.2,29.88,North,360,0.0,0.0,40,0.00,,---,0.02,VWS V14.01,2013-08-25 21:41:00,
2013-08-25 14:46:00,77.8,52.2,29.88,SW,215,0.0,0.0,41,0.00,,---,0.02,VWS V14.01,2013-08-25 21:46:00,
2013-08-25 14:51:00,78.4,52.1,29.88,NW,315,1.0,1.0,40,0.00,,---,0.02,VWS V14.01,2013-08-25 21:51:00,
2013-08-25 14:56:00,78.2,51.2,29.88,North,350,1.0,1.0,39,0.00,,---,0.02,VWS V14.01,2013-08-25 21:56:00,
2013-08-25 15:01:00,77.8,52.9,29.87,NW,304,0.0,0.0,42,0.00,,---,0.02,VWS V14.01,2013-08-25 22:01:00,
2013-08-25 15:06:00,77.5,53.3,29.87,SE,130,0.0,0.0,43,0.00,,---,0.02,VWS V14.01,2013-08-25 22:06:00,
2013-08-25 15:11:00,77.8,52.2,29.87,SE,130,0.0,1.0,41,0.00,,---,0.02,VWS V14.01,2013-08-25 22:11:00,
2013-08-25 15:16:00,78.0,52.4,29.87,SE,136,0.0,0.0,41,0.00,,---,0.02,VWS V14.01,2013-08-25 22:16:00,
2013-08-25 15:21:00,78.0,54.3,29.87,SSE,162,2.0,2.0,44,0.00,,---,0.02,VWS V14.01,2013-08-25 22:21:00,
2013-08-25 15:26:00,78.5,53.5,29.87,SSE,148,0.0,0.0,42,0.00,,---,0.02,VWS V14.01,2013-08-25 22:26:00,
2013-08-25 15:31:00,79.4,55.0,29.87,SSE,162,0.0,1.0,43,0.00,,---,0.02,VWS V14.01,2013-08-25 22:31:00,
2013-08-25 15:36:00,79.9,53.5,29.86,SSE,165,0.0,0.0,40,0.00,,---,0.02,VWS V14.01,2013-08-25 22:36:00,
2013-08-25 15:41:00,79.5,52.4,29.86,SSE,159,5.0,5.0,39,0.00,,---,0.02,VWS V14.01,2013-08-25 22:41:00,
2013-08-25 15:46:00,79.5,53.8,29.87,WSW,254,5.0,11.0,41,0.00,,---,0.02,VWS V14.01,2013-08-25 22:46:00,
2013-08-25 15:51:00,79.1,52.7,29.86,NNW,333,0.0,2.0,40,0.00,,---,0.02,VWS V14.01,2013-08-25 22:51:00,
2013-08-25 15:56:00,78.7,53.0,29.86,West,271,0.0,0.0,41,0.00,,---,0.02,VWS V14.01,2013-08-25 22:56:00,
2013-08-25 16:01:00,78.7,52.4,29.86,NW,306,1.0,2.0,40,0.00,,---,0.02,VWS V14.01,2013-08-25 23:01:00,
2013-08-25 16:06:00,78.4,53.4,29.86,NNW,339,0.0,0.0,42,0.00,,---,0.02,VWS V14.01,2013-08-25 23:06:00,
2013-08-25 16:11:00,78.2,52.6,29.86,East,100,0.0,1.0,41,0.00,,---,0.02,VWS V14.01,2013-08-25 23:11:00,
2013-08-25 16:16:00,78.3,53.3,29.86,ESE,116,1.0,1.0,42,0.00,,---,0.02,VWS V14.01,2013-08-25 23:16:00,
2013-08-25 16:21:00,78.1,52.5,29.85,SSE,163,0.0,0.0,41,0.00,,---,0.02,VWS V14.01,2013-08-25 23:21:00,
2013-08-25 16:26:00,78.0,53.1,29.86,SE,142,0.0,0.0,42,0.00,,---,0.02,VWS V14.01,2013-08-25 23:26:00,
2013-08-25 16:31:00,78.0,53.7,29.86,East,101,0.0,2.0,43,0.00,,---,0.02,VWS V14.01,2013-08-25 23:31:00,
2013-08-25 16:36:00,78.0,53.1,29.86,SSW,207,1.0,1.0,42,0.00,,---,0.02,VWS V14.01,2013-08-25 23:36:00,
2013-08-25 16:41:00,78.0,52.4,29.85,WNW,282,0.0,1.0,41,0.00,,---,0.02,VWS V14.01,2013-08-25 23:41:00,
2013-08-25 16:46:00,77.8,52.9,29.86,South,184,2.0,4.0,42,0.00,,---,0.02,VWS V14.01,2013-08-25 23:46:00,
2013-08-25 16:51:00,77.4,53.2,29.85,SSW,196,1.0,1.0,43,0.00,,---,0.02,VWS V14.01,2013-08-25 23:51:00,
2013-08-25 16:56:00,77.4,53.2,29.85,SE,132,0.0,2.0,43,0.00,,---,0.02,VWS V14.01,2013-08-25 23:56:00,
2013-08-25 17:01:00,77.4,53.2,29.85,South,171,0.0,0.0,43,0.00,,---,0.02,VWS V14.01,2013-08-26 00:01:00,
2013-08-25 17:06:00,77.4,53.2,29.85,NW,323,0.0,0.0,43,0.00,,---,0.02,VWS V14.01,2013-08-26 00:06:00,
2013-08-25 17:11:00,77.4,53.8,29.85,SW,223,0.0,3.0,44,0.00,,---,0.02,VWS V14.01,2013-08-26 00:11:00,
2013-08-25 17:16:00,77.5,53.3,29.85,West,280,6.0,7.0,43,0.00,,---,0.02,VWS V14.01,2013-08-26 00:16:00,
2013-08-25 17:21:00,77.5,54.5,29.85,ESE,104,0.0,0.0,45,0.00,,---,0.02,VWS V14.01,2013-08-26 00:21:00,
2013-08-25 17:26:00,77.6,53.4,29.85,SE,146,0.0,2.0,43,0.00,,---,0.02,VWS V14.01,2013-08-26 00:26:00,
2013-08-25 17:31:00,77.8,53.5,29.85,South,174,0.0,1.0,43,0.00,,---,0.02,VWS V14.01,2013-08-26 00:31:00,
2013-08-25 17:36:00,78.0,53.1,29.85,South,184,0.0,0.0,42,0.00,,---,0.02,VWS V14.01,2013-08-26 00:36:00,
2013-08-25 17:41:00,78.1,53.8,29.85,South,184,1.0,1.0,43,0.00,,---,0.02,VWS V14.01,2013-08-26 00:41:00,
2013-08-25 17:46:00,78.0,53.7,29.85,South,180,1.0,2.0,43,0.00,,---,0.02,VWS V14.01,2013-08-26 00:46:00,
2013-08-25 17:51:00,78.1,53.8,29.85,SSW,198,0.0,0.0,43,0.00,,---,0.02,VWS V14.01,2013-08-26 00:51:00,
2013-08-25 17:56:00,78.1,53.2,29.85,SSE,167,1.0,2.0,42,0.00,,---,0.02,VWS V14.01,2013-08-26 00:56:00,
2013-08-25 18:01:00,78.0,53.1,29.85,SSW,212,0.0,0.0,42,0.00,,---,0.02,VWS V14.01,2013-08-26 01:01:00,
2013-08-25 18:06:00,78.0,55.0,29.85,SW,217,0.0,0.0,45,0.00,,---,0.02,VWS V14.01,2013-08-26 01:06:00,
2013-08-25 18:11:00,77.8,53.5,29.85,West,267,0.0,0.0,43,0.00,,---,0.02,VWS V14.01,2013-08-26 01:11:00,
2013-08-25 18:16:00,77.7,54.7,29.84,South,185,0.0,0.0,45,0.00,,---,0.02,VWS V14.01,2013-08-26 01:16:00,
2013-08-25 18:21:00,77.4,53.8,29.85,West,280,0.0,0.0,44,0.00,,---,0.02,VWS V14.01,2013-08-26 01:21:00,
2013-08-25 18:26:00,77.0,52.8,29.85,West,280,0.0,0.0,43,0.00,,---,0.02,VWS V14.01,2013-08-26 01:26:00,
2013-08-25 18:31:00,76.2,53.3,29.84,West,280,0.0,0.0,45,0.00,,---,0.02,VWS V14.01,2013-08-26 01:31:00,
2013-08-25 18:36:00,75.7,53.5,29.84,WNW,288,0.0,0.0,46,0.00,,---,0.02,VWS V14.01,2013-08-26 01:36:00,
2013-08-25 18:41:00,75.3,53.1,29.84,WNW,284,0.0,0.0,46,0.00,,---,0.02,VWS V14.01,2013-08-26 01:41:00,
2013-08-25 18:46:00,74.8,53.2,29.84,WNW,284,0.0,0.0,47,0.00,,---,0.02,VWS V14.01,2013-08-26 01:46:00,
2013-08-25 18:51:00,74.2,53.3,29.84,WNW,284,0.0,0.0,48,0.00,,---,0.02,VWS V14.01,2013-08-26 01:51:00,
2013-08-25 18:56:00,73.7,53.9,29.84,WNW,284,0.0,0.0,50,0.00,,---,0.02,VWS V14.01,2013-08-26 01:56:00,
2013-08-25 19:01:00,73.3,53.6,29.84,WNW,290,0.0,3.0,50,0.00,,---,0.02,VWS V14.01,2013-08-26 02:01:00,
2013-08-25 19:06:00,73.1,53.9,29.84,WNW,290,0.0,0.0,51,0.00,,---,0.02,VWS V14.01,2013-08-26 02:06:00,
2013-08-25 19:11:00,72.8,54.2,29.84,WNW,290,0.0,0.0,52,0.00,,---,0.02,VWS V14.01,2013-08-26 02:11:00,
2013-08-25 19:16:00,72.4,54.8,29.84,WNW,290,0.0,0.0,54,0.00,,---,0.02,VWS V14.01,2013-08-26 02:16:00,
2013-08-25 19:21:00,72.1,55.1,29.85,WNW,290,0.0,0.0,55,0.00,,---,0.02,VWS V14.01,2013-08-26 02:21:00,
2013-08-25 19:26:00,71.6,54.1,29.85,WNW,290,0.0,0.0,54,0.00,,---,0.02,VWS V14.01,2013-08-26 02:26:00,
2013-08-25 19:31:00,71.2,54.2,29.85,WNW,290,0.0,0.0,55,0.00,,---,0.02,VWS V14.01,2013-08-26 02:31:00,
2013-08-25 19:36:00,70.7,54.2,29.85,SSE,160,0.0,1.0,56,0.00,,---,0.02,VWS V14.01,2013-08-26 02:36:00,
2013-08-25 19:41:00,70.3,54.4,29.85,SSE,160,0.0,0.0,57,0.00,,---,0.02,VWS V14.01,2013-08-26 02:41:00,
2013-08-25 19:46:00,70.0,54.6,29.85,SSE,160,0.0,0.0,58,0.00,,---,0.02,VWS V14.01,2013-08-26 02:46:00,
2013-08-25 19:51:00,69.6,54.2,29.85,SSE,160,0.0,0.0,58,0.00,,---,0.02,VWS V14.01,2013-08-26 02:51:00,
2013-08-25 19:56:00,69.2,54.3,29.85,SSE,160,0.0,0.0,59,0.00,,---,0.02,VWS V14.01,2013-08-26 02:56:00,
2013-08-25 20:01:00,68.8,54.4,29.85,SSE,160,0.0,0.0,60,0.00,,---,0.02,VWS V14.01,2013-08-26 03:01:00,
2013-08-25 20:06:00,68.5,54.5,29.85,SSE,160,0.0,0.0,61,0.00,,---,0.02,VWS V14.01,2013-08-26 03:06:00,
2013-08-25 20:11:00,68.0,54.5,29.85,SSE,160,0.0,0.0,62,0.00,,---,0.02,VWS V14.01,2013-08-26 03:11:00,
2013-08-25 20:16:00,67.6,54.1,29.86,SSE,160,0.0,0.0,62,0.00,,---,0.02,VWS V14.01,2013-08-26 03:16:00,
2013-08-25 20:21:00,67.1,54.5,29.86,SSE,160,0.0,0.0,64,0.00,,---,0.02,VWS V14.01,2013-08-26 03:21:00,
2013-08-25 20:26:00,66.6,54.1,29.86,SSE,160,0.0,0.0,64,0.00,,---,0.02,VWS V14.01,2013-08-26 03:26:00,
2013-08-25 20:31:00,66.2,54.1,29.86,SSE,160,0.0,0.0,65,0.00,,---,0.02,VWS V14.01,2013-08-26 03:31:00,
2013-08-25 20:36:00,65.8,53.7,29.86,SSE,160,0.0,0.0,65,0.00,,---,0.02,VWS V14.01,2013-08-26 03:36:00,
2013-08-25 20:41:00,65.4,53.8,29.86,SSE,160,0.0,0.0,66,0.00,,---,0.02,VWS V14.01,2013-08-26 03:41:00,
2013-08-25 20:46:00,65.1,53.5,29.86,SSE,160,0.0,0.0,66,0.00,,---,0.02,VWS V14.01,2013-08-26 03:46:00,
2013-08-25 20:51:00,64.8,53.6,29.87,SSE,160,0.0,0.0,67,0.00,,---,0.02,VWS V14.01,2013-08-26 03:51:00,
2013-08-25 20:56:00,64.5,53.3,29.87,SSE,160,0.0,0.0,67,0.00,,---,0.02,VWS V14.01,2013-08-26 03:56:00,
2013-08-25 21:01:00,64.2,53.4,29.87,SSE,160,0.0,0.0,68,0.00,,---,0.02,VWS V14.01,2013-08-26 04:01:00,
2013-08-25 21:06:00,63.8,53.0,29.87,SSE,160,0.0,0.0,68,0.00,,---,0.02,VWS V14.01,2013-08-26 04:06:00,
2013-08-25 21:11:00,63.5,53.2,29.87,SSE,160,0.0,0.0,69,0.00,,---,0.02,VWS V14.01,2013-08-26 04:11:00,
2013-08-25 21:16:00,63.2,52.9,29.88,SSE,160,0.0,0.0,69,0.00,,---,0.02,VWS V14.01,2013-08-26 04:16:00,
2013-08-25 21:21:00,63.0,53.1,29.88,SSE,160,0.0,0.0,70,0.00,,---,0.02,VWS V14.01,2013-08-26 04:21:00,
2013-08-25 21:26:00,62.6,53.1,29.88,SSE,160,0.0,0.0,71,0.00,,---,0.02,VWS V14.01,2013-08-26 04:26:00,
2013-08-25 21:31:00,62.4,52.9,29.88,SSE,160,0.0,0.0,71,0.00,,---,0.02,VWS V14.01,2013-08-26 04:31:00,
2013-08-25 21:36:00,62.2,52.7,29.88,SSE,160,0.0,0.0,71,0.00,,---,0.02,VWS V14.01,2013-08-26 04:36:00,
2013-08-25 21:41:00,62.0,52.9,29.88,SSE,160,0.0,0.0,72,0.00,,---,0.02,VWS V14.01,2013-08-26 04:41:00,
2013-08-25 21:46:00,61.7,52.6,29.88,SSE,160,0.0,0.0,72,0.00,,---,0.02,VWS V14.01,2013-08-26 04:46:00,
2013-08-25 21:51:00,61.4,52.3,29.88,SSE,160,0.0,0.0,72,0.00,,---,0.02,VWS V14.01,2013-08-26 04:51:00,
2013-08-25 21:56:00,61.2,52.1,29.88,SSE,160,0.0,0.0,72,0.00,,---,0.02,VWS V14.01,2013-08-26 04:56:00,
2013-08-25 22:01:00,61.0,52.3,29.88,SSE,160,0.0,0.0,73,0.00,,---,0.02,VWS V14.01,2013-08-26 05:01:00,
2013-08-25 22:06:00,60.8,52.1,29.88,SSE,160,0.0,0.0,73,0.00,,---,0.02,VWS V14.01,2013-08-26 05:06:00,
2013-08-25 22:11:00,60.6,51.9,29.88,SSE,160,0.0,0.0,73,0.00,,---,0.02,VWS V14.01,2013-08-26 05:11:00,
2013-08-25 22:16:00,60.4,51.7,29.89,SSE,160,0.0,0.0,73,0.00,,---,0.02,VWS V14.01,2013-08-26 05:16:00,
2013-08-25 22:21:00,60.1,51.4,29.89,SSE,160,0.0,0.0,73,0.00,,---,0.02,VWS V14.01,2013-08-26 05:21:00,
2013-08-25 22:26:00,59.9,51.6,29.89,SSE,160,0.0,0.0,74,0.00,,---,0.02,VWS V14.01,2013-08-26 05:26:00,
2013-08-25 22:31:00,59.7,51.4,29.89,SSE,160,0.0,0.0,74,0.00,,---,0.02,VWS V14.01,2013-08-26 05:31:00,
2013-08-25 22:36:00,59.5,51.2,29.89,SSE,160,0.0,0.0,74,0.00,,---,0.02,VWS V14.01,2013-08-26 05:36:00,
2013-08-25 22:41:00,59.1,50.8,29.89,SSE,160,0.0,0.0,74,0.00,,---,0.02,VWS V14.01,2013-08-26 05:41:00,
2013-08-25 22:46:00,59.0,51.1,29.89,SSE,160,0.0,0.0,75,0.00,,---,0.02,VWS V14.01,2013-08-26 05:46:00,
2013-08-25 22:51:00,59.0,51.1,29.89,SSE,160,0.0,0.0,75,0.00,,---,0.02,VWS V14.01,2013-08-26 05:51:00,
2013-08-25 22:56:00,58.9,51.0,29.88,SSE,160,0.0,0.0,75,0.00,,---,0.02,VWS V14.01,2013-08-26 05:56:00,
2013-08-25 23:01:00,58.7,50.8,29.89,SSE,160,0.0,0.0,75,0.00,,---,0.02,VWS V14.01,2013-08-26 06:01:00,
2013-08-25 23:06:00,58.5,51.0,29.89,SSE,160,0.0,0.0,76,0.00,,---,0.02,VWS V14.01,2013-08-26 06:06:00,
2013-08-25 23:11:00,58.4,50.9,29.89,SSE,160,0.0,0.0,76,0.00,,---,0.02,VWS V14.01,2013-08-26 06:11:00,
2013-08-25 23:16:00,58.2,50.7,29.89,SSE,160,0.0,0.0,76,0.00,,---,0.02,VWS V14.01,2013-08-26 06:16:00,
2013-08-25 23:21:00,58.1,50.6,29.89,SSE,160,0.0,0.0,76,0.00,,---,0.02,VWS V14.01,2013-08-26 06:21:00,
2013-08-25 23:26:00,58.0,50.5,29.89,SSE,160,0.0,0.0,76,0.00,,---,0.02,VWS V14.01,2013-08-26 06:26:00,
2013-08-25 23:31:00,57.8,50.7,29.89,SSE,160,0.0,0.0,77,0.00,,---,0.02,VWS V14.01,2013-08-26 06:31:00,
2013-08-25 23:36:00,57.7,50.5,29.89,SSE,160,0.0,0.0,77,0.00,,---,0.02,VWS V14.01,2013-08-26 06:36:00,
2013-08-25 23:41:00,57.6,50.5,29.89,SSE,160,0.0,0.0,77,0.00,,---,0.02,VWS V14.01,2013-08-26 06:41:00,
2013-08-25 23:46:00,57.5,50.4,29.89,SSE,160,0.0,0.0,77,0.00,,---,0.02,VWS V14.01,2013-08-26 06:46:00,
2013-08-25 23:51:00,57.3,50.2,29.89,SSE,160,0.0,0.0,77,0.00,,---,0.02,VWS V14.01,2013-08-26 06:51:00,
2013-08-25 23:56:00,57.2,50.4,29.89,SSE,160,0.0,0.0,78,0.00,,---,0.02,VWS V14.01,2013-08-26 06:56:00,